#timestamp,LO_Frequency,Hit 
1499806815.2,286047209.2,N
1499806835.0,286047208.2,N
1499806835.9,286047208.2,N
1499806855.8,286047210.1,N
1499806875.6,286047211.8,N
1499806895.4,286047209.3,N
1499806915.3,286047209.4,N
1499806935.1,286047213.9,N
1499806955.8,286047215.2,N
1499806975.7,286047214.8,N
1499806995.5,286047214.9,N
1499807015.3,286047215.3,N
1499807035.2,286047215.0,N
1499807055.9,286047217.1,N
1499807075.7,286047216.7,N
1499807095.6,286047216.8,N
1499807115.4,286047216.0,N
1499807135.2,286047216.5,N
1499807155.0,286047216.5,N
1499807156.0,286047216.5,N
1499807175.8,286047218.1,N
1499807195.6,286047217.4,N
1499807215.4,286047218.1,N
1499807235.3,286047220.3,N
1499807255.1,286047217.9,N
1499807275.8,286047218.6,N
1499807295.7,286047219.6,N
1499807315.5,286047219.4,N
1499807335.3,286047221.5,N
1499807355.2,286047220.5,N
1499807375.9,286047222.7,N
1499807395.7,286047223.6,N
1499807415.6,286047221.5,N
1499807435.4,286047223.4,N
1499807455.2,286047222.6,N
1499807475.1,286047220.9,N
1499807476.0,286047220.9,N
1499807495.8,286047221.5,N
1499807515.6,286047222.7,N
1499807535.4,286047223.2,N
1499807555.3,286047222.3,N
1499807575.1,286047223.2,N
1499807595.8,286047225.2,N
1499807615.7,286047224.1,N
1499807635.5,286047225.0,N
1499807655.3,286047224.3,N
1499807675.2,286047226.9,N
1499807695.9,286047227.1,N
1499807715.7,286047223.8,N
1499807735.6,286047223.5,N
1499807755.4,286047222.0,N
1499807775.2,286047223.5,N
1499807795.1,286047222.8,N
1499807796.0,286047222.8,N
1499807815.8,286047223.3,N
1499807835.6,286047219.0,N
1499807855.5,286047219.9,N
1499807875.3,286047218.4,N
1499807895.1,286047218.2,N
1499807915.9,286047220.0,N
1499807935.7,286047215.7,N
1499807955.5,286047218.5,N
1499807975.3,286047215.8,N
1499807995.2,286047217.8,N
1499808015.0,286047218.2,N
1499808015.9,286047218.2,N
1499808035.7,286047222.0,N
1499808055.6,286047220.2,N
1499808075.4,286047218.9,N
1499808095.2,286047219.1,N
1499808115.1,286047220.0,N
1499808116.0,286047220.0,N
1499808135.8,286047217.5,N
1499808155.6,286047217.9,N
1499808175.5,286047217.3,N
1499808195.3,286047217.3,N
1499808215.1,286047217.6,N
1499808235.9,286047217.3,N
1499808255.7,286047217.3,N
1499808275.5,286047219.5,N
1499808295.4,286047221.2,N
1499808315.2,286047221.6,N
1499808335.0,286047221.7,N
1499808335.9,286047221.7,N
1499808355.8,286047221.8,N
1499808375.6,286047221.6,N
1499808395.4,286047221.3,N
1499808415.2,286047222.6,N
1499808435.1,286047222.4,N
1499808436.0,286047222.4,N
1499808455.8,286047223.2,N
1499808475.6,286047222.8,N
1499808495.5,286047222.2,N
1499808515.3,286047223.9,N
1499808535.1,286047226.6,N
1499808555.9,286047225.7,N
1499808575.7,286047226.4,N
1499808595.5,286047229.5,N
1499808615.4,286047229.8,N
1499808635.2,286047229.9,N
1499808655.0,286047227.1,N
1499808655.9,286047227.1,N
1499808675.8,286047226.9,N
1499808695.6,286047229.9,N
1499808715.4,286047229.8,N
1499808735.3,286047229.1,N
1499808755.1,286047229.9,N
1499808756.0,286047229.9,N
1499808775.8,286047229.2,N
1499808795.6,286047231.0,N
1499808815.5,286047230.2,N
1499808835.3,286047231.3,N
1499808855.1,286047231.2,N
1499808875.9,286047231.5,N
1499808895.7,286047230.8,N
1499808915.5,286047231.0,N
1499808935.4,286047230.5,N
1499808955.2,286047231.9,N
1499808975.0,286047233.0,N
1499808975.9,286047233.0,N
1499808995.8,286047234.7,N
1499809015.6,286047234.5,N
1499809035.4,286047234.4,N
1499809055.3,286047234.1,N
1499809075.1,286047234.1,N
1499809076.0,286047234.1,N
1499809095.8,286047236.1,N
1499809115.7,286047235.7,N
1499809135.5,286047235.0,N
1499809155.3,286047236.0,N
1499809175.1,286047236.6,N
1499809195.9,286047237.8,N
1499809215.7,286047235.4,N
1499809235.5,286047237.9,N
1499809255.4,286047235.4,N
1499809275.2,286047237.3,N
1499809295.0,286047235.6,N
1499809295.9,286047235.6,N
1499809315.8,286047235.3,N
1499809335.6,286047237.9,N
1499809355.4,286047237.8,N
1499809375.3,286047237.0,N
1499809395.1,286047236.6,N
1499809396.0,286047236.6,N
1499809415.8,286047239.5,N
1499809435.7,286047239.1,N
1499809455.5,286047240.7,N
1499809475.3,286047240.9,N
1499809495.2,286047240.3,N
1499809515.9,286047240.4,N
1499809535.7,286047240.8,N
1499809555.6,286047240.5,N
1499809575.4,286047239.9,N
1499809595.2,286047240.2,N
1499809615.1,286047242.1,N
1499809616.0,286047242.1,N
1499809635.8,286047242.1,N
1499809655.6,286047242.5,N
1499809675.4,286047242.6,N
1499809695.3,286047241.5,N
1499809715.1,286047241.7,N
1499809735.8,286047242.0,N
1499809755.7,286047244.0,N
1499809775.5,286047244.2,N
1499809795.3,286047243.5,N
1499809815.2,286047244.2,N
1499809835.9,286047243.0,N
1499809855.7,286047243.4,N
1499809875.6,286047243.7,N
1499809895.4,286047244.9,N
1499809915.2,286047244.5,N
1499809935.1,286047244.7,N
1499809936.0,286047244.7,N
1499809955.8,286047246.9,N
1499809975.6,286047244.5,N
1499809995.5,286047245.1,N
1499810015.3,286047247.2,N
1499810035.1,286047246.3,N
1499810055.8,286047249.1,N
1499810075.7,286047248.5,N
1499810095.5,286047246.1,N
1499810115.3,286047246.7,N
1499810135.2,286047248.7,N
1499810155.0,286047246.6,N
1499810155.9,286047246.6,N
1499810175.7,286047248.6,N
1499810195.6,286047248.2,N
1499810215.4,286047248.3,N
1499810235.2,286047255.3,N
1499810255.1,286047262.2,N
1499810256.0,286047262.2,N
1499810275.8,286047262.9,N
1499810295.6,286047261.0,N
1499810315.5,286047263.1,N
1499810335.3,286047262.4,N
1499810355.1,286047262.3,N
1499810375.9,286047260.6,N
1499810395.7,286047258.9,N
